PSLV DEB, 41792

Orbit data source: Space-Track

PSLV DEB, 41792 is space debris in SSO originally from a launch on Mon, 26 Sep 2016 UTC launched from the Sirharikota (SRI). Debris objects in space refer to the collection of defunct objects orbiting the Earth. Examples of debris include non-operational satellites, rocket bodies, and fragments generated from explosions, collisions, or faulty payload assembly.

Loading next visibility...
Identifier
41792, 2016-059K
Orbit
SSO
Last TLE update
14 hours ago
Origin
Manufacturer
VSSC/LPSC
Mission
Spacecraft
Bus & Motor
Unknown
Mass
Unknown
Launch date (UTC)
2016-09-26 (9 years ago)
Launch vehicle
Unknown
Launch site
Sirharikota (SRI)
Object type
Payload
Rocket body
Debris
Shape & HBR
Cone + Cyl, 3 m
Radar Cross Section
7.069 m², Large (>1 m²)

Expand to show TLE details & history

TLE from 14 hours ago
0 PSLV DEB
1 41792U 16059K   25128.68353803  .00004510  00000-0  65278-3 0  9999
2 41792  97.8090 158.0539 0022685  27.8794 332.3627 14.76423774461124
Epoch: 2025-05-08T16:24Z
Definitive object data (Epoch: 2025-05-08T16:24:17.685Z)
Latitude
0.00001°
Longitude
45.2297°
Altitude
629.554 km
Speed
7.551 km/s
True Right ascension
10h 32m 12s
True Declination
0° 00' 00"
Sunlit
Object was in daylight at TLE epoch
Visualization TLE readout
Latitude
-10.44706°
Longitude
-135.65264°
Altitude
660.915 km
Speed
7.518 km/s
Apparent Right ascension
00h 04m 48s
Apparent Declination
-27° 20' 12"
Sunlit
Object is in daylight
Visualization observer readout
Local Sidereal Time
14:25:21
Azimuth
77.438° E
Elevation
-58.413°
Doppler factor
1
Orbital elements
Apogee altitude
653.592 km
Perigee altitude
621.762 km
Semi-major axis
7,015.814 km
Eccentricity
0.0022685
Inclination
97.809°
RAAN
158.0539°
Arg. of periapsis
27.8794°
True anomaly
332.24181°
Mean anomaly
332.3627°
Eccentric anomaly
332.30229°
Mean motion
3.6934 °/min
BSTAR
0.00065278
Orbital period
97.47 mins
Loading maneuver chart data...
Loading SW <> Apogee altitude chart data...
Loading historical data...
Loading historical data...
Loading historical data...
Loading historical data...
Loading historical data...
Loading historical data...
Loading historical data...

PSLV DEB Visibility forecast

Observer location: undefined°, undefined°

Span
Click to sort rows by Start time (UTC) header in descending order
Start Az.
Max El. time (UTC)
Max El. Az.
Max El.
End time (UTC)
End Az.
7 mins2025-05-09 14:07:33.165Z36.352° NE2025-05-09 14:11:33.165Z109.41° ESE27.123°2025-05-09 14:14:33.165Z156.499° SSE
5 mins2025-05-09 15:45:33.165Z326.538° NNW2025-05-09 15:47:33.165Z289.672° WNW21.357°2025-05-09 15:50:33.165Z243.485° WSW
5 mins2025-05-10 01:05:33.165Z109.784° ESE2025-05-10 01:07:33.165Z73.651° E22.38°2025-05-10 01:10:33.165Z21.038° NNE
6 mins2025-05-10 02:41:33.165Z214.228° SW2025-05-10 02:44:33.165Z272.937° WNW24.698°2025-05-10 02:47:33.165Z320.639° NNW
|